EW6999 Weather Reports


time (UTC)temp
C
wind
direction
speed
KPH
gust
KPH
rain 1hr
cm
rain 24hr
cm
rain mn
cm
humidity
%
barometer
mb
20260503220333 15 235 3.2 12.9 0.00 0.00 0.00 29 1009.0
20260503214829 15 293 3.2 9.7 0.00 0.00 0.00 29 1009.2
20260503213340 15 285 1.6 12.9 0.00 0.00 0.00 31 1009.0
20260503211836 15 262 3.2 12.9 0.00 0.00 0.00 31 1008.9
20260503210327 15 285 3.2 11.3 0.00 0.00 0.00 29 1009.0
20260503204841 15 282 6.4 16.1 0.00 0.00 0.00 30 1008.8
20260503203333 15 281 1.6 14.5 0.00 0.00 0.00 30 1008.7
20260503201826 15 356 3.2 24.1 0.00 0.00 0.00 31 1008.9
20260503200342 14 297 6.4 17.7 0.00 0.00 0.00 31 1008.9
20260503194832 14 248 3.2 19.3 0.00 0.00 0.00 32 1009.1
20260503193329 15 105 3.2 11.3 0.00 0.00 0.00 34 1009.2
20260503191842 14 236 1.6 17.7 0.00 0.00 0.00 33 1009.4
20260503190333 14 226 1.6 14.5 0.00 0.00 0.00 36 1009.5
20260503184829 14 276 3.2 12.9 0.00 0.00 0.00 36 1009.7
20260503183400 13 349 4.8 16.1 0.00 0.00 0.00 35 1010.0
20260503181834 13 260 3.2 8.0 0.00 0.00 0.00 39 1010.0
20260503180327 12 284 1.6 12.9 0.00 0.00 0.00 39 1010.0
20260503174843 12 294 4.8 14.5 0.00 0.00 0.00 38 1010.1
20260503173334 13 287 1.6 8.0 0.00 0.00 0.00 40 1010.2
20260503171825 12 238 1.6 11.3 0.00 0.00 0.00 39 1010.1
20260503170342 12 62 4.8 12.9 0.00 0.00 0.00 40 1010.1
20260503150328 11 309 1.6 12.9 0.00 0.00 0.00 41 1010.7
20260503130325 10 253 1.6 14.5 0.00 0.00 0.00 54 1010.7
20260503110356 7 292 1.6 11.3 0.00 0.00 0.00 57 1010.0
20260503090339 8 257 3.2 6.4 0.00 0.00 0.00 54 1008.5
20260503080353 8 311 0.0 9.7 0.00 0.00 0.00 50 1008.5
20260503071831 9 6 1.6 9.7 0.00 0.00 0.00 48 1008.4
20260503070344 9 295 0.0 4.8 0.00 0.00 0.00 48 1008.4
20260503060341 10 285 4.8 9.7 0.00 0.00 0.00 47 1008.6
20260503054831 10 13 1.6 8.0 0.00 0.00 0.00 46 1008.8
20260503053327 10 300 1.6 16.1 0.00 0.00 0.00 46 1008.7
20260503051900 10 297 3.2 11.3 0.00 0.00 0.00 45 1008.8
20260503050333 10 278 1.6 12.9 0.00 0.00 0.00 44 1009.0
20260503044905 11 307 1.6 4.8 0.00 0.00 0.00 45 1009.2
20260503043336 11 325 3.2 8.0 0.00 0.00 0.00 44 1009.3
20260503041830 11 290 3.2 6.4 0.00 0.00 0.00 43 1009.2
20260503040401 11 27 1.6 9.7 0.00 0.00 0.00 43 1009.2
20260503034836 11 41 3.2 9.7 0.00 0.00 0.00 43 1009.2
20260503033327 11 310 1.6 9.7 0.00 0.00 0.00 44 1009.1
20260503031841 11 273 3.2 12.9 0.00 0.00 0.00 42 1009.1
20260503030337 11 349 1.6 8.0 0.00 0.00 0.00 42 1009.1
20260503024850 12 5 0.0 3.2 0.00 0.00 0.00 42 1009.1
20260503023325 12 35 0.0 4.8 0.00 0.00 0.00 43 1009.2
20260503021857 12 288 1.6 4.8 0.00 0.00 0.00 42 1009.0
20260503020348 12 291 0.0 3.2 0.00 0.00 0.00 44 1009.1
20260503014903 12 301 1.6 4.8 0.00 0.00 0.00 42 1009.1
20260503013334 12 319 0.0 4.8 0.00 0.00 0.00 42 1009.2
20260503011832 12 308 0.0 6.4 0.00 0.00 0.00 41 1009.1
20260503010344 12 278 1.6 6.4 0.00 0.00 0.00 42 1008.9
20260503004837 12 299 0.0 0.0 0.00 0.00 0.00 46 1008.7
20260503003333 12 299 0.0 0.0 0.00 0.00 0.00 45 1008.5
20260503001826 12 299 0.0 0.0 0.00 0.00 0.00 43 1008.4
20260503000342 13 299 0.0 0.0 0.00 0.00 0.00 41 1008.4
20260502234833 13 321 0.0 3.2 0.00 0.00 0.00 41 1008.3
20260502233329 13 304 0.0 3.2 0.00 0.00 0.00 41 1008.4
20260502231841 14 10 0.0 3.2 0.00 0.00 0.00 40 1008.3
20260502230352 14 351 1.6 3.2 0.00 0.00 0.00 40 1008.3
20260502224827 15 281 1.6 8.0 0.00 0.00 0.00 38 1008.2
20260502223341 15 151 0.0 1.6 0.00 0.00 0.00 38 1008.0
20260502221857 15 319 0.0 0.0 0.00 0.00 0.00 38 1008.0